Regional Weather Roundup
Issued by NWS

Home | Current Version | Previous Version | Text Only | Print | Product List | Glossary On
Versions: 1 2 3 4 5 6 7 8 9 10 11 12 13 14 15 16 17 18 19 20 21 22 23 24 25 26 27 28 29 30 31 32 33 34 35 36 37 38 39 40 41 42 43 44 45 46 47 48 49 50
000
ASUS43 KBIS 181559
RWRND

NORTH DAKOTA REGIONAL WEATHER ROUNDUP
NATIONAL WEATHER SERVICE BISMARCK ND
1100 AM CDT FRI APR 18 2014

NOTE: "FAIR" INDICATES FEW OR NO CLOUDS BELOW 12,000 FEET WITH NO
SIGNIFICANT WEATHER AND/OR OBSTRUCTIONS TO VISIBILITY.


NDZ001>003-009>011-017-181700-
NORTHWEST NORTH DAKOTA

CITY           SKY/WX    TMP DP  RH WIND       PRES   REMARKS
WILLISTON      CLOUDY    43  26  51 SE20G26   29.83F
MINOT          CLOUDY    39  22  50 E25G33    29.99F
$$

NDZ018>021-031>035-040>046-181700-
SOUTHWEST NORTH DAKOTA

CITY           SKY/WX    TMP DP  RH WIND       PRES   REMARKS
BISMARCK       MOSUNNY   47  26  44 SE24G30   29.96F
DICKINSON      SUNNY     46  29  51 SE23      29.80F
GARRISON         N/A     43  25  49 SE23G32   29.95F
HETTINGER ARPT SUNNY     45  30  55 SE22      29.83F
$$

NDZ004>008-012>016-024-026-027-054-181700-
NORTHEAST NORTH DAKOTA

CITY           SKY/WX    TMP DP  RH WIND       PRES   REMARKS
GRAND FORKS    PTSUNNY   42  22  44 SE15      30.25F
DEVILS LAKE    CLOUDY    39  21  48 SE25G31   30.13F
$$

NDZ022-023-025-028>030-036>039-047>053-181700-
SOUTHEAST NORTH DAKOTA

CITY           SKY/WX    TMP DP  RH WIND       PRES   REMARKS
FARGO          CLOUDY    41  26  55 SE14      30.24F
$$




USA.gov is the U.S. government's official web portal to all federal, state and local government web resources and services.